Fort Smith, AR

9:29 PM CDT on June 24, 2017 (GMT -0500)
Fort Smith Regional

Weather History for KFSM - August, 2012

Change the Weather History Date:

Tuesday, August 7, 2012

  Actual Average Record
Temperature  
Mean Temperature 92 °F 83 °F  
Max Temperature 105 °F 94 °F 107 °F (1954)
Min Temperature 78 °F 72 °F 59 °F (1957)
Cooling Degree Days 27 18  
Month to date cooling degree days 189 126  
Year to date cooling degree days 2017 1291  
Since 1 June cooling degree days 1448 1047  
Growing Degree Days 42 (Base 50)    
Moisture  
Dew Point 67 °F    
Average Humidity 53    
Maximum Humidity 85    
Minimum Humidity 21    
Precipitation  
Precipitation 0.00 in 0.09 in 0.90 in (1921)
Month to date precipitation 0.00 0.63  
Year to date precipitation 24.28 27.40  
Sea Level Pressure  
Sea Level Pressure 29.90 in    
Wind  
Wind Speed 4 mph (East)    
Max Wind Speed 18 mph    
Max Gust Speed 22 mph    
Visibility 10 miles    
Events      
T = Trace of Precipitation, MM = Missing Value Source: NWS Daily Summary

Daily Weather History Graph

Daily Weather History Graph

Search for Another Location

Airport or City:

Trip Planner

Search our weather history database for the weather conditions in past years. The results will help you decide how hot, cold, wet, or windy it might be!

Date:

Astronomy

Aug. 07, 2012 Rise Set
Actual Time 6:31 AM CDT 8:14 PM CDT
Civil Twilight 6:03 AM CDT 8:42 PM CDT
Nautical Twilight 5:30 AM CDT 9:15 PM CDT
Astronomical Twilight 4:55 AM CDT 9:50 PM CDT
Moon 11:11 PM CDT (8/7) 12:03 PM CDT (8/7)
Length of Visible Light 14h 38m
Length of Day
13h 43m
Waning Gibbous, 69% of the Moon is Illuminated
Aug 7
Waning Gibbous
Aug 9
Last Quarter
Aug 17
New
Aug 24
First Quarter
Aug 31
Full

Hourly Weather History & Observations

Time (CDT) Temp. Heat Index Dew Point Humidity Pressure Visibility Wind Dir Wind Speed Gust Speed Precip Events Conditions
12:53 AM 84.9 °F 88.2 °F 68.0 °F 57% 29.94 in 10.0 mi East 4.6 mph - N/A   Clear
1:53 AM 82.0 °F 85.5 °F 69.1 °F 65% 29.93 in 10.0 mi ENE 4.6 mph - N/A   Clear
2:53 AM 81.0 °F 84.4 °F 70.0 °F 69% 29.93 in 10.0 mi NE 5.8 mph - N/A   Clear
3:53 AM 81.0 °F 84.4 °F 70.0 °F 69% 29.92 in 10.0 mi Calm Calm - N/A   Clear
4:53 AM 80.1 °F 83.2 °F 70.0 °F 71% 29.93 in 10.0 mi Calm Calm - N/A   Clear
5:53 AM 79.0 °F - 72.0 °F 79% 29.93 in 10.0 mi Calm Calm - N/A   Clear
6:53 AM 79.0 °F - 73.0 °F 82% 29.95 in 8.0 mi East 4.6 mph - N/A   Clear
7:53 AM 82.0 °F 86.7 °F 72.0 °F 71% 29.96 in 10.0 mi East 5.8 mph - N/A   Clear
8:53 AM 84.9 °F 90.7 °F 72.0 °F 65% 29.96 in 10.0 mi East 5.8 mph - N/A   Clear
9:53 AM 89.1 °F 95.0 °F 71.1 °F 55% 29.96 in 10.0 mi Variable 4.6 mph - N/A   Clear
10:53 AM 91.9 °F 97.4 °F 70.0 °F 48% 29.96 in 10.0 mi Variable 5.8 mph - N/A   Clear
11:53 AM 95.0 °F 100.7 °F 69.1 °F 43% 29.94 in 10.0 mi Variable 3.5 mph - N/A   Clear
12:53 PM 98.1 °F 102.4 °F 66.9 °F 36% 29.93 in 10.0 mi Variable 4.6 mph - N/A   Clear
1:53 PM 100.9 °F 105.3 °F 66.0 °F 32% 29.90 in 10.0 mi ESE 5.8 mph - N/A   Clear
2:53 PM 100.9 °F 104.0 °F 64.0 °F 30% 29.87 in 10.0 mi Variable 3.5 mph - N/A   Clear
3:53 PM 102.9 °F 102.4 °F 57.0 °F 22% 29.85 in 10.0 mi Calm Calm - N/A   Clear
4:53 PM 105.1 °F 104.4 °F 57.0 °F 20% 29.85 in 10.0 mi NE 6.9 mph - N/A   Clear
5:53 PM 102.0 °F 103.9 °F 62.1 °F 27% 29.83 in 10.0 mi ENE 12.7 mph - N/A   Clear
6:53 PM 98.1 °F 98.6 °F 61.0 °F 29% 29.83 in 10.0 mi East 9.2 mph - N/A   Clear
7:53 PM 97.0 °F 99.3 °F 64.0 °F 34% 29.84 in 10.0 mi SE 3.5 mph - N/A   Mostly Cloudy
8:53 PM 93.0 °F 95.9 °F 66.0 °F 41% 29.85 in 10.0 mi SSW 3.5 mph - N/A   Clear
9:53 PM 91.0 °F 93.8 °F 66.0 °F 44% 29.87 in 10.0 mi WSW 5.8 mph - N/A   Partly Cloudy
10:53 PM 88.0 °F 91.4 °F 68.0 °F 51% 29.88 in 10.0 mi Calm Calm - N/A   Clear
11:53 PM 86.0 °F 90.1 °F 69.1 °F 57% 29.89 in 10.0 mi ENE 5.8 mph - N/A   Clear